1350 visiteurs
Prévisions de votre ville :
Vigilance : 28 départements Mise à jour le 17/10/2019 à 16:07 - Voir la carte

Paris Roissy CDG (95380) le 17/10/2019 à 22:00 Choisir station

14°C 94 % S Vit. moyenne 20 kmh/h

Relevés météo quotidiens pour la station de :

UTC
S: Synop
M: Metar
Loc T°C
(°C)
Td
(°C)
HR
(%)
Vis
(km)
Néb
(octa)
Vent
(km/h)
Pression
(mb)
Précipitations
(mm)
Temps
              MOY
10 min
DIR RAF 1h MESURE VAR SUR 3h    
S 00 h 02h 21.7 17.3 76 16 - 11 15 1013.8 +0.1/3h 0.0/6h - 0.0/3h -
S 01 h 03h 21.5 17.1 76 22 - 9 19 1013.2 -0.3/3h 0.0/1h -
S 02 h 04h 22.5 16.1 67 23 - 9 20 1012.7 -1.0/3h 0.0/1h -
S 03 h 05h 21.1 15.2 69 25 - 4 17 1011.9 -1.9/3h 0.0/3h -
S 04 h 06h 20.2 15.6 75 20 - 7 11 1012.3 -1.0/3h 0.0/1h -
S 05 h 07h 20.7 15.9 74 22 8/8 13 20 1013.3 +0.5/3h 0.0/1h
S 06 h 08h 24.0 16.3 62 23 7/8 6 19 1013.6 +1.7/3h 0.0/12h - 0.0/3h - 0.0/24h
S 07 h 09h 27.9 20.2 63 19 - 7 15 1013.3 +1.1/3h 0.0/1h -
M 08 h 10h 29 21 62 >=10 - 4 - 1012 -/3h -
S 09 h 11h 29.2 21.4 63 19 - 13 24 1012.0 -1.6/3h 0.0/3h -
S 10 h 12h 30.7 22.0 60 19 - 17 24 1011.6 -1.7/3h 0.0/1h -
S 11 h 13h 29.9 23.8 70 19 - 24 39 1012.2 -0.3/3h 0.0/1h -
S 12 h 14h 30.4 24.1 69 17 - 17 31 1011.6 -0.4/3h 0.0/6h - 0.0/3h -
S 13 h 15h 30.5 24.2 69 14 - 17 28 1011.7 +0.1/3h 0.0/1h -
S 14 h 16h 30.5 24.4 70 13 - 19 28 1011.4 -0.8/3h 0.0/1h -
S 15 h 17h 29.7 24.6 74 12 - 15 30 1011.5 -0.1/3h 0.0/3h -
M 16 h 18h 29 24 74 >=10 - 13 - 1011 -/3h -
M 17 h 19h 30 24 70 >=10 - 13 - 1011 -/3h -
S 18 h 20h 28.3 24.3 79 9 - 11 20 1010.7 -0.8/3h 0.0/12h - 0.0/3h -
M 19 h 21h 28 24 79 9 - 15 - 1011 -/3h -
S 20 h 22h 27.0 24.1 84 8 - 7 20 1011.5 +0.5/3h 0.0/1h -
S 21 h 23h 26.6 23.7 84 7 - 4 15 1011.5 +0.8/3h 0.0/3h -
S 22 h 00h 25.8 22.7 83 5 - 6 7 1012.3 +1.0/3h 0.0/1h -
S 23 h 01h 25.3 22.4 84 6 - 7 9 1012.6 +1.1/3h 0.0/1h -
evolution des temperatures
cumul des precipitations
vent moyen et rafales
pression atmospherique

Un tiret (-) signifie que les données ne sont pas disponibles.

Passez la souris sur les pictos temps pour avoir plus de précisions. Passez les flèches sur l'icône de la direction du vent pour voir la direction précise en degrés.

Les données de l'heure en cours sont disponibles à partir de H+15 minutes.


S signifie station Synop, plus complète qu'une station Metar (M). Il y a +1h de différence entre l'heure UTC et l'heure légale en hiver et +2h en été.

Td est la mesure du point de rosée.

HR est l'humidité relative/p>

Vis est la visibilité

Néb est la nébulosité du ciel (couverture nuageuse) exprimée en octas (de 0/8 à 8/8).

Vent moy 10 min donne le vent moyen sur les 10 minutes qui précèdent le relevé.

Vent raf 1h donne la rafale maximale mesurée dans l'heure qui précède le relevé.


Les données les plus anciennes remontent à avril 2014.

Les données présentées sur cette page proviennent des stations météo officielles. Les relevés sont effectués aux normes en vigueur (anémomètre à 10m de haut, thermomètre sous abri normalisé à 2m du sol...)

Météo 60 décline toute responsabilité en cas d'absence de données, d'erreurs, de mauvaise utilisation ou interprétation et n'est pas habilité à fournir des certificats intempéries.